map of PSS home
PSS - Airport
Location
City:  Posadas, Misiones, Argentina
Name:Libertador Gernal José de San Martín Airport
ICAO:SARP
IATA:PSS

Details
Type:Airport (Aerodrome, Airfield)
Latitude:27°23'09"S (-27.385838)
Longitude:55°58'15"W (-55.970727)
Datum:WGS 1984
Elevation:430 ft (131 m)
Variation:14.39°W (WMM2015 magnetic declination)
-0.17° annual change
Runways:1
Longest:7406 × 98 ft (2257 × 30 m), paved

Time
Time Zone:UTC-3
Local Time:

Weather
METAR:SARP 241800Z 29008KT 9999 FEW040TCU BKN050 30/22 Q1009
TAF:SARP 241700Z 2418/2518 34010KT 9999 SCT035 FEW040TCU BKN100 TX35/2518Z TN22/2509Z
BECMG 2420/2424 8000 -TSRA SCT030 BKN050 FEW055CB
BECMG 2500/2502 CAVOK
BECMG 2506/2508 5000 BR NSC
BECMG 2512/2514 9999 SCT020

Related Locations
Nearby:
Farthest:HYN: 12264 mi / 19737 km
Huangyan [Luqiao], 33, CN

Find:

   beyond  
but within

Other Information
Maps:
NOTAMs:
Links:
Sources:

  
flag of Argentina
flag of Misiones
  

Sectional Chart

Flight Planning
at skyvector.com

Satellite Image

Google Maps Satellite view

 

Copyright © 2004-2017 Karl L. Swartz. All rights reserved.
The Great Circle Mapper name and logo are trademarks of the Great Circle Mapper.
All other trademarks mentioned herein belong to their respective owners.
Please see credits for attibutions and further copyright information.

  Follow gcmap on Facebook Follow gcmap on Twitter Follow gcmap on Google+ GCmap on LinkedIn

hCard Microformat

Geo Microformat